Location: �A�n Sefra
(34.9681°N, 0.4346°E)
Time: 05:12:23
(UTC+00:00)

Cosmos 1703 - Pass Details

Date: 21 October 2019
Orbit: 524 x 541 km, 82.5° (Epoch: 11 November)

Event Time Altitude Azimuth Distance (km) Brightness Sun altitude
Rises 18:15:06 0° 349° (N) 2,680 6.9 -12.7°
Reaches altitude 10° 18:17:17 10° 346° (NNW) 1,783 6.0 -13.2°
Maximum altitude 18:21:08 63° 266° (W) 594 3.7 -13.9°
Drops below altitude 10° 18:24:58 10° 185° (S) 1,760 6.0 -14.7°
Sets 18:27:06 0° 182° (S) 2,642 6.9 -15.2°
